Location: 10033 Water Well
(34.0865°N, 106.8959°W)
Time: 16:35:03
(UTC+00:00)

SL-4 R/B - Pass Details

Date: 13 January 2026
Orbit: 384 x 519 km, 51.6° (Epoch: 11 February)

Event Time Altitude Azimuth Distance (km) Brightness Sun altitude
Rises 02:31:26 0° 305° (NW) 2,612 6.1 -27.0°
Reaches altitude 10° 02:33:47 10° 297° (WNW) 1,706 5.2 -27.5°
Enters shadow 02:36:27 31° 261° (W) 876 3.6 -28.0°
